Location: Unspecified
(0.0000°N, 0.0000°E)
Time: 00:28:00
(UTC+02:00)

Altair - All Passes

Search period start: 27 September 2016 00:00
Search period end: 07 October 2016 00:00
Orbit: 1501 x 1683 km, 47.2° (Epoch: 25 September)

Date Brightness Start Highest point End Pass type
(mag) Time Alt. Az. Time Alt. Az. Time Alt. Az.
27 Sep - 00:18:36 10° SE 00:19:12 10° SE 00:19:49 10° SE night (unlit)
27 Sep - 02:14:52 10° SSW 02:24:28 62° SE 02:34:22 10° NE night (unlit)
27 Sep - 04:21:04 10° WSW 04:29:15 29° NW 04:37:36 10° N visible
27 Sep - 13:02:37 10° N 13:10:09 26° NE 13:17:27 10° E daylight
27 Sep - 15:05:25 10° NW 15:14:49 66° SW 15:23:57 10° SSE daylight
27 Sep - 17:18:48 10° SW 17:19:53 10° SW 17:20:57 10° SW daylight
28 Sep - 01:49:52 10° SSW 01:59:18 56° SE 02:09:02 10° NE night (unlit)
28 Sep - 03:55:31 10° WSW 04:04:01 33° NW 04:12:44 10° NNE visible
28 Sep - 12:37:50 10° N 12:44:56 23° NE 12:51:48 10° E daylight
28 Sep - 14:40:10 10° NW 14:49:41 74° SW 14:58:54 10° SSE daylight
28 Sep - 16:51:13 10° WSW 16:54:37 12° SW 16:58:01 10° SSW daylight
29 Sep - 01:24:53 10° SSW 01:34:08 50° SE 01:43:39 10° ENE night (unlit)
29 Sep - 03:30:02 10° WSW 03:38:48 37° NW 03:47:49 10° NNE visible
29 Sep - 12:13:09 10° N 12:19:42 20° NE 12:26:03 10° E daylight
29 Sep - 14:14:56 10° NW 14:24:33 82° SW 14:33:51 10° SE daylight
29 Sep - 16:24:45 10° WSW 16:29:22 15° SW 16:33:58 10° SSW daylight
30 Sep - 00:59:56 10° SSW 01:08:58 44° SE 01:18:14 10° ENE night (unlit)
30 Sep - 03:04:36 10° WSW 03:13:36 41° NW 03:22:51 10° NNE night (unlit)
30 Sep - 11:48:33 10° N 11:54:27 17° NE 12:00:11 10° E daylight
30 Sep - 13:49:45 10° NW 13:59:25 90° NE 14:08:45 10° SE daylight
30 Sep - 15:58:36 10° W 16:04:09 17° SW 16:09:39 10° S daylight
01 Oct - 00:35:02 10° SSW 00:43:47 39° SE 00:52:47 10° ENE night (unlit)
01 Oct - 02:39:13 10° WSW 02:48:24 46° NW 02:57:53 10° NNE night (unlit)
01 Oct - 11:24:06 10° NNE 11:29:10 15° NE 11:34:09 10° ENE daylight
01 Oct - 13:24:36 10° NW 13:34:16 81° NE 13:43:37 10° SE daylight
01 Oct - 15:32:39 10° W 15:38:56 20° SW 15:45:09 10° S daylight
02 Oct - 00:10:09 10° SSW 00:18:37 35° SE 00:27:16 10° ENE visible
02 Oct - 02:13:53 10° WSW 02:23:12 51° NW 02:32:52 10° NNE night (unlit)
02 Oct - 10:59:52 10° NNE 11:03:53 13° NE 11:07:51 10° ENE daylight
02 Oct - 12:59:27 10° NNW 13:09:08 73° NE 13:18:27 10° SE daylight
02 Oct - 15:06:50 10° W 15:13:43 22° SW 15:20:32 10° S daylight
02 Oct - 23:45:20 10° S 23:53:25 31° SE 00:01:42 10° ENE visible
03 Oct - 01:48:36 10° SW 01:58:02 58° NW 02:07:49 10° NNE night (unlit)
03 Oct - 10:36:07 10° NNE 10:38:35 11° NE 10:41:01 10° ENE daylight
03 Oct - 12:34:21 10° NNW 12:43:59 65° NE 12:53:15 10° SE daylight
03 Oct - 14:41:06 10° W 14:48:32 26° SW 14:55:51 10° S daylight
03 Oct - 23:20:34 10° S 23:28:14 27° SE 23:36:05 10° ENE visible
04 Oct - 01:23:21 10° SW 01:32:51 64° NW 01:42:44 10° NNE night (unlit)
04 Oct - 03:35:47 10° WNW 03:38:21 11° NW 03:40:55 10° NNW night (unlit)
04 Oct - 12:09:16 10° NNW 12:18:50 58° NE 12:28:01 10° SE daylight
04 Oct - 14:15:28 10° WNW 14:23:22 29° SW 14:31:06 10° S daylight
04 Oct - 22:55:51 10° S 23:03:02 24° SE 23:10:22 10° E visible
05 Oct - 00:58:08 10° SW 01:07:41 72° NW 01:17:37 10° NNE night (unlit)
05 Oct - 03:08:55 10° WNW 03:13:01 13° NW 03:17:11 10° NNW night (unlit)
05 Oct - 11:44:13 10° NNW 11:53:40 52° NE 12:02:45 10° SE daylight
05 Oct - 13:49:54 10° WNW 13:58:11 33° SW 14:06:19 10° SSE daylight
05 Oct - 22:31:13 10° S 22:37:50 21° SE 22:44:34 10° E visible
06 Oct - 00:32:57 10° SW 00:42:32 79° NW 00:52:28 10° NE visible
06 Oct - 02:42:35 10° WNW 02:47:43 15° NW 02:52:56 10° NNW night (unlit)
06 Oct - 11:19:12 10° NNW 11:28:30 47° NE 11:37:26 10° ESE daylight
06 Oct - 13:24:22 10° WNW 13:33:02 37° SW 13:41:28 10° SSE daylight
06 Oct - 22:06:39 10° S 22:12:36 18° SE 22:18:38 10° E visible
